Regional Weather Roundup
Issued by NWS Midland/Odessa, TX

Home | Current Version | Previous Version | Text Only | Print | Product List | Glossary On
Versions: 1 2 3 4 5 6 7 8 9 10 11 12 13 14 15 16 17 18 19 20 21 22 23 24 25 26 27 28 29 30 31 32 33 34 35 36 37 38 39 40 41 42 43 44 45 46 47 48 49 50
000
ASUS44 KMAF 260810
RWRMAF
MIDLAND AREA WEATHER ROUNDUP
NATIONAL WEATHER SERVICE MIDLAND TX
300 AM CDT FRI AUG 26 2016

...IN SOUTHWEST TEXAS AND SOUTHEAST NEW MEXICO...

CITY           SKY/WX    TMP DP  RH WIND       PRES   REMARKS
ALPINE         CLOUDY    65  63  93 N6        30.23F
ANDREWS        NOT AVBL
ARTESIA        FAIR      63  63 100 N9        30.16S
BIG SPRING     FAIR      73  66  79 NW7       30.13S
CARLSBAD       FAIR      64  62  93 SE5       30.12S
DRYDEN           N/A     77  66  68 E17G23    30.04F
FORT STOCKTON  MOCLDY    68  67  96 NW3       30.12S
GUAD PASS      FAIR      63  51  65 E14       30.23F
HOBBS          MOCLDY    64  64 100 CALM      30.17R
MARFA          FAIR     N/A N/A N/A NE6       30.19F
MIDLAND AIRPK  CLOUDY    71  61  69 NE3       30.13F
MIDLAND INTL   CLOUDY    71  62  73 CALM      30.12F
ODESSA         FAIR      69  64  84 E3        30.13F
PECOS          FAIR      69  65  88 N5        30.09F
PRESIDIO       NOT AVBL
SEMINOLE       CLOUDY    66  65  96 CALM      30.16R
SNYDER           N/A     69  63  80 NE10      30.10F
WINK           FAIR      69  66  90 MISG      30.09F
$$
...OTHER STATIONS IN TEXAS...

CITY           SKY/WX    TMP DP  RH WIND       PRES   REMARKS
ABILENE        FAIR      74  66  76 S10       30.07F
AMARILLO       FAIR      60  59  96 S3        30.16F
AUSTIN         MOCLDY    76  74  93 N3        30.04F
BROWNSVILLE    FAIR      78  76  93 CALM      29.98F
CORPUS CHRISTI FAIR      78  76  93 S5        30.00F
DALLAS FTW     MOCLDY    79  72  79 S10       30.04F
DEL RIO        MOCLDY    79  72  79 E13       30.01F
EL PASO        MOCLDY    70  57  63 CALM      30.10F
HOUSTON INT    CLOUDY    75  73  93 N3        30.02F
LUBBOCK        CLOUDY    64  62  93 E8        30.13F
SAN ANGELO     FAIR      71  61  70 S8        30.06F
SAN ANTONIO    MOCLDY    78  74  87 SE8       30.05F
WACO           FAIR      78  75  90 SE8       30.05F
WICHITA FALLS  NOT AVBL
$$
...OTHER LOCATIONS IN NEW MEXICO...

CITY           SKY/WX    TMP DP  RH WIND       PRES   REMARKS
ALAMAGORDO     LGT RAIN  66  50  55 CALM      30.14F
ALBUQUERQUE    MOCLDY    67  47  48 N12       30.20F
CANNON AFB     CLOUDY    62  62 100 S17       30.15F
CLOVIS         MOCLDY    61  55  82 SE8       30.17F
HOLLOMAN AFB   NOT AVBL
ROSWELL        FAIR      65  58  78 CALM      30.16F
RUIDOSO          N/A     55  50  82 SE5       30.33S
SANTA FE       CLOUDY    56  53  90 NE9       30.28F
TRUTH OR CONSE FAIR      69  53  56 S8        30.14S
TUCUMCARI      FAIR      63  58  83 CALM      30.16F
$$



USA.gov is the U.S. government's official web portal to all federal, state and local government web resources and services.